User: anonymous   Login
Location: Unspecified
(0.0000°N, 0.0000°E)
Time: 08:49:24
(UTC+00:00)
Language:

OV3-3 - Orbit

View from above orbital plane
View from above orbital plane
View from above satellite
View from above satellite

Ground track
Ground track

The orbit data is extracted from the following two-line orbital elements,

1  2389U 66070A   17142.90955117 +.00002137 +00000-0 +12018-3 0  9991
2  2389 081.3885 186.9517 1251457 333.0589 021.0467 12.89925268166566
Epoch (UTC): 22 May 2017 21:49:45
Eccentricity: 0.1251457
inclination: 81.3885°
perigee height: 341 km
apogee height: 2263 km
right ascension of ascending node: 186.9517°
argument of perigee: 333.0589°
revolutions per day: 12.89925268
mean anomaly at epoch: 21.0467°
orbit number at epoch: 16656

The dashed part of the orbit path shows where the satellite is in the earth's shadow,  

DLR